Location: Beadle
(51.4667°N, 109.0000°W)
Time: 08:52:22
(UTC+00:00)

deb Explorer IX - Pass Details

Date: 30 May 2022
Orbit: 535 x 1068 km, 38.8° (Epoch: 04 July)

Event Time Altitude Azimuth Distance (km) Brightness Sun altitude
Rises 20:21:12 0° 257° (WSW) 3,765 ? 57.6°
Reaches altitude 10° 20:24:35 10° 244° (WSW) 2,745 ? 57.3°
Maximum altitude 20:29:28 22° 196° (SSW) 1,893 ? 56.9°
Drops below altitude 10° 20:33:56 10° 147° (SSE) 2,479 ? 56.5°
Sets 20:36:49 0° 133° (SE) 3,312 ? 56.3°
